| time (UTC) | temp F | wind direction | speed MPH | gust MPH | rain 1hr in | rain 24hr in | rain mn in | humidity % | barometer mb |
| 20260831094546 | 73 | 188 | 13.0 | 19.0 | 0.00 | 0.00 | 0.00 | 51 | 1007.4 |
| 20260831093047 | 74 | 215 | 13.0 | 19.0 | 0.00 | 0.00 | 0.00 | 50 | 1007.2 |
| 20260831091543 | 73 | 196 | 13.0 | 17.0 | 0.00 | 0.00 | 0.00 | 50 | 1007.2 |
| 20260831090043 | 73 | 195 | 12.0 | 17.0 | 0.00 | 0.00 | 0.00 | 51 | 1007.2 |
| 20260831084543 | 72 | 211 | 11.0 | 15.0 | 0.00 | 0.00 | 0.00 | 51 | 1007.2 |
| 20260831083043 | 73 | 214 | 14.0 | 18.0 | 0.00 | 0.00 | 0.00 | 50 | 1007.3 |
| 20260831081534 | 74 | 212 | 11.0 | 15.0 | 0.00 | 0.00 | 0.00 | 48 | 1007.1 |
| 20260831080051 | 75 | 187 | 13.0 | 19.0 | 0.00 | 0.00 | 0.00 | 46 | 1006.9 |
| 20260831074532 | 75 | 200 | 14.0 | 19.0 | 0.00 | 0.00 | 0.00 | 46 | 1006.9 |
| 20260831073033 | 75 | 207 | 13.0 | 18.0 | 0.00 | 0.00 | 0.00 | 47 | 1006.7 |
| 20260831071527 | 75 | 211 | 11.0 | 19.0 | 0.00 | 0.00 | 0.00 | 45 | 1006.7 |
| 20260831070029 | 75 | 182 | 10.0 | 18.0 | 0.00 | 0.00 | 0.00 | 46 | 1006.8 |
| 20260831064522 | 76 | 184 | 10.0 | 19.0 | 0.00 | 0.00 | 0.00 | 44 | 1006.8 |
| 20260831063022 | 76 | 184 | 9.0 | 15.0 | 0.00 | 0.00 | 0.00 | 45 | 1006.7 |
| 20260831061517 | 77 | 156 | 9.0 | 15.0 | 0.00 | 0.00 | 0.00 | 44 | 1006.6 |
| 20260831060014 | 77 | 187 | 9.0 | 17.0 | 0.00 | 0.00 | 0.00 | 43 | 1006.6 |
| 20260831054512 | 78 | 202 | 8.0 | 15.0 | 0.00 | 0.00 | 0.00 | 43 | 1006.6 |
| 20260831053008 | 79 | 179 | 10.0 | 17.0 | 0.00 | 0.00 | 0.00 | 42 | 1006.5 |
| 20260831051509 | 79 | 175 | 11.0 | 16.0 | 0.00 | 0.00 | 0.00 | 42 | 1006.4 |
| 20260831050003 | 80 | 207 | 10.0 | 16.0 | 0.00 | 0.00 | 0.00 | 42 | 1006.3 |
| 20260831044507 | 80 | 152 | 8.0 | 15.0 | 0.00 | 0.00 | 0.00 | 41 | 1006.2 |
| 20260831043004 | 81 | 172 | 9.0 | 19.0 | 0.00 | 0.00 | 0.00 | 40 | 1006.1 |
| 20260831041501 | 82 | 175 | 11.0 | 16.0 | 0.00 | 0.00 | 0.00 | 39 | 1006.1 |
| 20260831040101 | 82 | 153 | 10.0 | 20.0 | 0.00 | 0.00 | 0.00 | 39 | 1006.1 |
| 20260831034602 | 83 | 174 | 12.0 | 18.0 | 0.00 | 0.00 | 0.00 | 38 | 1006.0 |
| 20260831033102 | 83 | 171 | 11.0 | 15.0 | 0.00 | 0.00 | 0.00 | 37 | 1005.8 |
| 20260831031558 | 84 | 160 | 10.0 | 18.0 | 0.00 | 0.00 | 0.00 | 36 | 1005.7 |
| 20260831030106 | 85 | 145 | 11.0 | 19.0 | 0.00 | 0.00 | 0.00 | 35 | 1005.3 |
| 20260831024604 | 85 | 155 | 11.0 | 16.0 | 0.00 | 0.00 | 0.00 | 35 | 1005.1 |
| 20260831023057 | 86 | 164 | 9.0 | 18.0 | 0.00 | 0.00 | 0.00 | 34 | 1004.8 |
| 20260831021555 | 87 | 158 | 10.0 | 19.0 | 0.00 | 0.00 | 0.00 | 33 | 1004.7 |
| 20260831014606 | 88 | 162 | 9.0 | 17.0 | 0.00 | 0.00 | 0.00 | 32 | 1004.4 |
| 20260831013054 | 89 | 360 | 11.0 | 19.0 | 0.00 | 0.00 | 0.00 | 31 | 1004.2 |
| 20260831011608 | 90 | 161 | 10.0 | 21.0 | 0.00 | 0.00 | 0.00 | 29 | 1004.2 |
| 20260831010052 | 91 | 180 | 11.0 | 19.0 | 0.00 | 0.00 | 0.00 | 28 | 1004.0 |
| 20260831004552 | 93 | 166 | 11.0 | 20.0 | 0.00 | 0.00 | 0.00 | 27 | 1004.1 |
| 20260831003054 | 93 | 157 | 12.0 | 23.0 | 0.00 | 0.00 | 0.00 | 27 | 1004.0 |
| 20260831001601 | 94 | 151 | 10.0 | 20.0 | 0.00 | 0.00 | 0.00 | 26 | 1003.9 |
| 20260831000050 | 95 | 360 | 11.0 | 25.0 | 0.00 | 0.00 | 0.00 | 26 | 1003.9 |
| 20260830234549 | 95 | 127 | 12.0 | 24.0 | 0.00 | 0.00 | 0.00 | 25 | 1003.9 |
| 20260830233049 | 96 | 155 | 13.0 | 23.0 | 0.00 | 0.00 | 0.00 | 25 | 1003.9 |
| 20260830231548 | 96 | 163 | 14.0 | 22.0 | 0.00 | 0.00 | 0.00 | 25 | 1003.9 |
| 20260830230047 | 97 | 360 | 10.0 | 21.0 | 0.00 | 0.00 | 0.00 | 25 | 1003.9 |
| 20260830224607 | 97 | 178 | 11.0 | 24.0 | 0.00 | 0.00 | 0.00 | 25 | 1003.8 |
| 20260830223050 | 97 | 119 | 12.0 | 22.0 | 0.00 | 0.00 | 0.00 | 25 | 1003.9 |
| 20260830221545 | 97 | 182 | 16.0 | 27.0 | 0.00 | 0.00 | 0.00 | 25 | 1003.9 |
| 20260830220053 | 97 | 179 | 12.0 | 23.0 | 0.00 | 0.00 | 0.00 | 26 | 1003.9 |
| 20260830214553 | 97 | 148 | 13.0 | 25.0 | 0.00 | 0.00 | 0.00 | 25 | 1004.0 |
| 20260830213045 | 97 | 160 | 16.0 | 29.0 | 0.00 | 0.00 | 0.00 | 26 | 1004.2 |
| 20260830211542 | 97 | 198 | 15.0 | 29.0 | 0.00 | 0.00 | 0.00 | 26 | 1004.3 |
| 20260830210039 | 98 | 217 | 15.0 | 23.0 | 0.00 | 0.00 | 0.00 | 26 | 1004.6 |
| 20260830204538 | 97 | 182 | 13.0 | 24.0 | 0.00 | 0.00 | 0.00 | 26 | 1004.8 |
| 20260830203036 | 97 | 200 | 17.0 | 25.0 | 0.00 | 0.00 | 0.00 | 26 | 1005.1 |
| 20260830201534 | 97 | 126 | 13.0 | 22.0 | 0.00 | 0.00 | 0.00 | 26 | 1005.2 |
| 20260830200033 | 97 | 200 | 9.0 | 21.0 | 0.00 | 0.00 | 0.00 | 27 | 1005.3 |
| 20260830194530 | 97 | 196 | 14.0 | 21.0 | 0.00 | 0.00 | 0.00 | 27 | 1005.7 |
| 20260830193027 | 96 | 211 | 18.0 | 30.0 | 0.00 | 0.00 | 0.00 | 28 | 1005.7 |
| 20260830191525 | 95 | 155 | 12.0 | 23.0 | 0.00 | 0.00 | 0.00 | 29 | 1005.8 |
| 20260830190024 | 95 | 195 | 14.0 | 26.0 | 0.00 | 0.00 | 0.00 | 29 | 1005.9 |
| 20260830184521 | 94 | 207 | 16.0 | 28.0 | 0.00 | 0.00 | 0.00 | 31 | 1006.1 |
| 20260830183021 | 94 | 200 | 20.0 | 34.0 | 0.00 | 0.00 | 0.00 | 30 | 1006.3 |
| 20260830181518 | 93 | 212 | 18.0 | 31.0 | 0.00 | 0.00 | 0.00 | 32 | 1006.6 |
| 20260830180014 | 93 | 215 | 22.0 | 29.0 | 0.00 | 0.00 | 0.00 | 32 | 1006.8 |
| 20260830174512 | 92 | 188 | 15.0 | 28.0 | 0.00 | 0.00 | 0.00 | 33 | 1007.0 |
| 20260830173010 | 91 | 208 | 22.0 | 35.0 | 0.00 | 0.00 | 0.00 | 35 | 1007.1 |
| 20260830171507 | 91 | 204 | 21.0 | 32.0 | 0.00 | 0.00 | 0.00 | 35 | 1007.2 |
| 20260830170004 | 90 | 192 | 20.0 | 36.0 | 0.00 | 0.00 | 0.00 | 37 | 1007.2 |
| 20260830164503 | 89 | 209 | 19.0 | 33.0 | 0.00 | 0.00 | 0.00 | 39 | 1007.3 |
| 20260830163003 | 88 | 202 | 24.0 | 31.0 | 0.00 | 0.00 | 0.00 | 40 | 1007.3 |
| 20260830161611 | 87 | 197 | 21.0 | 30.0 | 0.00 | 0.00 | 0.00 | 41 | 1007.3 |
| 20260830160055 | 86 | 215 | 21.0 | 31.0 | 0.00 | 0.00 | 0.00 | 42 | 1007.4 |
| 20260830154552 | 85 | 230 | 22.0 | 28.0 | 0.00 | 0.00 | 0.00 | 44 | 1007.5 |
| 20260830153049 | 84 | 360 | 23.0 | 30.0 | 0.00 | 0.00 | 0.00 | 46 | 1007.5 |
| 20260830151545 | 83 | 203 | 24.0 | 29.0 | 0.00 | 0.00 | 0.00 | 48 | 1007.5 |
| 20260830150043 | 82 | 215 | 24.0 | 31.0 | 0.00 | 0.00 | 0.00 | 49 | 1007.8 |
| 20260830144539 | 81 | 235 | 23.0 | 29.0 | 0.00 | 0.00 | 0.00 | 51 | 1007.9 |
| 20260830143053 | 79 | 196 | 22.0 | 28.0 | 0.00 | 0.00 | 0.00 | 52 | 1007.8 |
| 20260830141541 | 79 | 201 | 20.0 | 30.0 | 0.00 | 0.00 | 0.00 | 53 | 1007.9 |
| 20260830140045 | 78 | 217 | 20.0 | 26.0 | 0.00 | 0.00 | 0.00 | 54 | 1007.8 |
| 20260830134542 | 75 | 213 | 19.0 | 25.0 | 0.00 | 0.00 | 0.00 | 57 | 1007.9 |
| 20260830133034 | 74 | 360 | 15.0 | 19.0 | 0.00 | 0.00 | 0.00 | 59 | 1007.8 |
| 20260830131532 | 73 | 207 | 17.0 | 24.0 | 0.00 | 0.00 | 0.00 | 59 | 1007.8 |
| 20260830130041 | 74 | 221 | 17.0 | 23.0 | 0.00 | 0.00 | 0.00 | 58 | 1007.6 |
| 20260830124527 | 74 | 216 | 18.0 | 24.0 | 0.00 | 0.00 | 0.00 | 57 | 1007.5 |
| 20260830123025 | 74 | 210 | 16.0 | 21.0 | 0.00 | 0.00 | 0.00 | 57 | 1007.5 |
| 20260830121532 | 74 | 214 | 17.0 | 22.0 | 0.00 | 0.00 | 0.00 | 55 | 1007.3 |
| 20260830120022 | 75 | 232 | 18.0 | 24.0 | 0.00 | 0.00 | 0.00 | 54 | 1007.2 |
| 20260830114522 | 76 | 205 | 17.0 | 23.0 | 0.00 | 0.00 | 0.00 | 53 | 1007.2 |
| 20260830113023 | 75 | 360 | 17.0 | 23.0 | 0.00 | 0.00 | 0.00 | 53 | 1007.1 |
| 20260830111519 | 75 | 360 | 18.0 | 24.0 | 0.00 | 0.00 | 0.00 | 53 | 1007.2 |
| 20260830110020 | 76 | 206 | 16.0 | 24.0 | 0.00 | 0.00 | 0.00 | 52 | 1007.1 |
| 20260830104520 | 75 | 360 | 18.0 | 22.0 | 0.00 | 0.00 | 0.00 | 52 | 1007.0 |
| 20260830103018 | 75 | 236 | 17.0 | 23.0 | 0.00 | 0.00 | 0.00 | 51 | 1006.9 |
| 20260830101519 | 74 | 210 | 17.0 | 21.0 | 0.00 | 0.00 | 0.00 | 51 | 1006.8 |